AirNav   Duncan Aviation - Near you to keep you flying
 
 481 users online  

1S9 Chewelah Municipal Airport
Chewelah, Washington, USA

GOING TO CHEWELAH?


FAA INFORMATION EFFECTIVE 26 JANUARY 2023

Location

FAA Identifier: 1S9
Lat/Long: 48-18-50.2495N 117-44-36.3335W
48-18.837492N 117-44.605558W
48.3139582,-117.7434260
(estimated)
Elevation: 2084 ft. / 635 m (estimated)
Variation: 20E (1985)
Time zone: UTC -8 (UTC -7 during Daylight Saving Time)
Zip code: 99109

Airport Operations

Airport use: Open to the public
Activation date: 01/1979
Control tower: no
ARTCC: SEATTLE CENTER
FSS: SEATTLE FLIGHT SERVICE STATION
NOTAMs facility: SEA (NOTAM-D service available)
Attendance: UNATNDD
Wind indicator: lighted
Segmented circle: yes
Lights: ACTVT MIRL RY 17/35 - CTAF. PAPI RY 17 AND RY 35 OPER CONTINUOUSLY.
Beacon: white-green (lighted land airport)
Operates sunset to sunrise.

Airport Communications

CTAF: 122.9
WX AWOS-3 at 63S (15 nm N): 119.275 (509-684-8994)

Nearby radio navigation aids

NDB name  Hdg/Dist  Freq  Var  ID
DEER PARK313/24.336516EDPY -.. .--. -.--
IONE188/27.137921EION .. --- -.

Airport Services

Fuel available: 100LL JET-A
100LL:100LL & JET A AVBL 24 HRS CREDIT CARD SELF SVC.
Parking: tiedowns
Airframe service: MINOR
Powerplant service: MINOR
Bottled oxygen: NONE
Bulk oxygen: NONE

Runway Information

Runway 17/35

Dimensions: 3537 x 48 ft. / 1078 x 15 m
Surface: asphalt, in excellent condition
Runway edge lights: medium intensity
RUNWAY 17  RUNWAY 35
Latitude: 48-19.124150N48-18.550833N
Longitude: 117-44.531783W117-44.679333W
Traffic pattern: rightleft
Displaced threshold: 230 ft.87 ft.
Markings: basic, in good conditionbasic, in good condition
Visual slope indicator: 2-light PAPI on right (4.00 degrees glide path)2-light PAPI on left (3.00 degrees glide path)
Obstructions: 11 ft. tree, 275 ft. from runway, 63 ft. right of centerline, 6:1 slope to clear
3 FT DITCH +1 FT TO +3 FT ROCKS & RD 56 FT FM THR; 77 FT L, +14 FT TREES 200 FT FM THR, AND 10 FT SIGN, 86 FT R, 53 FT FM THR.
none

Airport Ownership and Management from official FAA records

Ownership: Publicly-owned
Owner: CITY OF CHEWELAH
PO BOX 258
CHEWELAH, WA 99109
Phone 509-935-8311
Manager: TYRONE BRYANT
139 RICHMOND LANE
CHEWELAH, WA 99109
Phone (509) 936-0234

Airport Operational Statistics

Aircraft based on the field: 24
Single engine airplanes: 22
Multi engine airplanes: 2
    
Aircraft operations: avg 96/week *
60% local general aviation
40% transient general aviation
* for 12-month period ending 31 December 2021

Additional Remarks

ALL PATTERNS TO THE WEST.
DEER & WILDLIFE ON & INVOF ARPT.
FOR CD CTC SEATTLE ARTCC AT 253-351-3694.
LODGING & FOOD AVBL AT APRT.

Instrument Procedures

There are no published instrument procedures at 1S9.

Some nearby airports with instrument procedures:

KDEW - Deer Park Airport (24 nm SE)
KSFF - Felts Field Airport (41 nm SE)
KSKA - Fairchild Air Force Base (42 nm S)
KGEG - Spokane International Airport (43 nm S)
KSZT - Sandpoint Airport (47 nm E)
 
Loc | Ops | Rwys | IFR | FBO | Links
Com | Nav | Svcs | Stats | Notes
Area around 1S9 (Chewelah Municipal Airport)
 
Road maps at: MapQuest Bing Google
 
Aerial photo
WARNING: Photo may not be current or correct
Aerial photo of 1S9 (Chewelah Municipal Airport)
Photo by P.J. Reinders
Taken in September 2008

Do you have a better or more recent aerial photo of Chewelah Municipal Airport that you would like to share? If so, please send us your photo.

 
Sectional chart

 
Airport distance calculator
Flying to Chewelah Municipal Airport? Find the distance to fly.

From to 1S9

Sunrise and sunset
Times for 27-Jan-2023
 Local
(UTC-8)
 Zulu
(UTC)
Morning civil twilight06:5314:53
Sunrise07:2715:27
Sunset16:4100:41
Evening civil twilight17:1501:15

Current date and time
Zulu (UTC)  27-Jan-2023 09:07:53
Local (UTC-8)  27-Jan-2023 01:07:53
 
METAR
K63S 
14nm N 
270855Z 00000KT 3SM BR FEW018 SCT060 SCT075 00/M00 A3002 RMK A01 NARROW RNWYS 01-19 DUE TO 2-3 FOOT HIGH SNOW BERM ALONG RNWY LENGTH USE CAUTION
KDEW 
24nm SE 
270853Z AUTO 00000KT 1/2SM UP FG VV006 01/01 A3002 RMK AO2 UPB0755 SLP183 P0001 60002 T00060006 58025
TAF
KSFF 
42nm SE 
270827Z 2708/2806 22006KT P6SM -RA SCT014 OVC040 FM271000 22005KT 6SM -RA BR BKN012 OVC025 FM271500 24005KT 6SM BR OVC015 FM272000 27006KT P6SM SCT015 BKN070
KSKA 
42nm S 
270300Z 2703/2809 18005KT 9999 OVC010 620609 QNH3014INS BECMG 2706/2707 20008KT 4800 -RASN OVC003 620073 QNH3000INS BECMG 2711/2712 23010KT 2400 -SN BR OVC005 620059 QNH2998INS BECMG 2716/2717 26012KT 8000 BR SCT005 BKN040 620609 QNH2997INS BECMG 2802/2803 29010KT 6000 BR BKN005 QNH2994INS TX03/2721Z TNM02/2713Z
KGEG 
43nm S 
270523Z 2706/2806 21004KT P6SM SCT007 BKN010 OVC100 FM270800 21008KT P6SM -RASN BKN005 OVC008 FM271100 22011KT 2SM -SN BR OVC003 FM271500 24009KT 4SM BR OVC005 FM272000 27007KT P6SM SCT012 BKN070
KCOE 
50nm SE 
270523Z 2706/2806 21004KT P6SM VCSH SCT010 OVC060 FM270800 22004KT 6SM -SN OVC006 FM271400 24003KT 2SM BR OVC003 FM271900 26006KT P6SM SCT010 BKN030 BKN070
NOTAMs
Click for the latest NOTAMs
NOTAMs are issued by the DoD/FAA and will open in a separate window not controlled by AirNav.

 

 
 

Would you like to see your business listed on this page?

 If your business provides an interesting product or service to pilots, flight crews, aircraft, or users of the Chewelah Municipal Airport, you should consider listing it here.  To start the listing process, click on the button below
 
Add a business
 

Other Pages about Chewelah Municipal Airport

Update a link
 
Copyright © AirNav, LLC. All rights reserved. Privacy Policy  Contact